TimeCST,TemperatureF,Dew PointF,Humidity,Sea Level PressureIn,VisibilityMPH,Wind Direction,Wind SpeedMPH,Gust SpeedMPH,PrecipitationIn,Events,Conditions,WindDirDegrees,DateUTC
12:53 AM,16.0,1.9,54,30.43,10.0,NNW,12.7,-,N/A,,Overcast,340,2013-12-06 06:53:00
1:53 AM,15.1,1.0,54,30.42,10.0,North,16.1,-,N/A,,Overcast,350,2013-12-06 07:53:00
2:53 AM,14.0,1.0,56,30.44,10.0,North,11.5,-,N/A,,Overcast,360,2013-12-06 08:53:00
3:53 AM,14.0,1.0,56,30.43,10.0,North,13.8,-,N/A,,Overcast,350,2013-12-06 09:53:00
4:53 AM,12.9,1.0,59,30.45,10.0,North,15.0,-,N/A,,Overcast,360,2013-12-06 10:53:00
5:53 AM,12.0,-0.9,56,30.47,10.0,North,12.7,-,N/A,,Overcast,360,2013-12-06 11:53:00
6:53 AM,10.9,-2.0,56,30.45,10.0,North,16.1,-,N/A,,Overcast,350,2013-12-06 12:53:00
7:53 AM,10.0,-2.0,58,30.51,10.0,North,12.7,-,N/A,,Mostly Cloudy,360,2013-12-06 13:53:00
8:53 AM,12.0,-0.9,56,30.51,10.0,North,13.8,-,N/A,,Mostly Cloudy,360,2013-12-06 14:53:00
9:53 AM,14.0,-0.9,52,30.53,10.0,NNE,17.3,-,N/A,,Mostly Cloudy,20,2013-12-06 15:53:00
10:53 AM,12.9,-2.0,51,30.55,10.0,North,11.5,20.7,N/A,,Scattered Clouds,360,2013-12-06 16:53:00
11:53 AM,16.0,-0.9,47,30.53,10.0,North,13.8,-,N/A,,Mostly Cloudy,360,2013-12-06 17:53:00
12:53 PM,16.0,-0.9,47,30.54,10.0,North,9.2,-,N/A,,Mostly Cloudy,360,2013-12-06 18:53:00
1:53 PM,17.1,-2.0,43,30.52,10.0,North,10.4,-,N/A,,Mostly Cloudy,350,2013-12-06 19:53:00
2:53 PM,18.0,-0.9,44,30.52,10.0,North,10.4,-,N/A,,Mostly Cloudy,350,2013-12-06 20:53:00
3:53 PM,16.0,-2.9,43,30.54,10.0,North,10.4,-,N/A,,Mostly Cloudy,350,2013-12-06 21:53:00
4:53 PM,14.0,-2.9,47,30.57,10.0,North,11.5,-,N/A,,Mostly Cloudy,360,2013-12-06 22:53:00
5:53 PM,12.9,-2.0,51,30.60,10.0,NNW,9.2,-,N/A,,Mostly Cloudy,340,2013-12-06 23:53:00
6:53 PM,12.0,-2.0,53,30.62,10.0,NNW,9.2,-,N/A,,Mostly Cloudy,340,2013-12-07 00:53:00
7:53 PM,10.9,-2.0,56,30.64,10.0,North,8.1,-,N/A,,Mostly Cloudy,350,2013-12-07 01:53:00
8:53 PM,9.0,-2.9,59,30.66,10.0,NNW,6.9,-,N/A,,Partly Cloudy,330,2013-12-07 02:53:00
9:53 PM,9.0,-2.0,61,30.68,10.0,NNW,8.1,-,N/A,,Clear,340,2013-12-07 03:53:00
10:53 PM,8.1,-2.0,64,30.69,10.0,North,6.9,-,N/A,,Clear,350,2013-12-07 04:53:00
11:53 PM,8.1,-2.0,64,30.69,10.0,North,10.4,-,N/A,,Clear,360,2013-12-07 05:53:00